This demonstration page uses our WeatherBlox Daily Observations layout. Learn more.

Left ArrowRight Arrow

53.62937, 11.41316

Hourly Observations for January 3, 2016

Temp ( °F °C ) Dew Point ( °F °C ) Humidity (%) Winds ( mph kmh ) Pressure ( in mb ) Visibility ( mi km ) Precip ( " mm )
6:50 am 06:50 Mostly Cloudy 19 -7 12 -11 73 73 ESE 10 17 30.09 1019 30 48 N/A
7:20 am 07:20 Mostly Cloudy 19 -7 12 -11 73 73 ESE 13 20 30.06 1018 30 48 N/A
7:50 am 07:50 Mostly Cloudy 19 -7 14 -10 79 79 ESE 10 17 30.06 1018 30 48 N/A
8:20 am 08:20 Mostly Cloudy 19 -7 14 -10 79 79 ESE 12 19 30.06 1018 30 48 N/A
8:50 am 08:50 Mostly Cloudy 19 -7 14 -10 79 79 ESE 13 20 30.06 1018 30 48 N/A
9:20 am 09:20 Mostly Cloudy 19 -7 12 -11 73 73 ESE 13 20 30.03 1017 30 48 N/A
9:50 am 09:50 Mostly Cloudy 19 -7 12 -11 73 73 ESE 12 19 30.03 1017 30 48 N/A
10:20 am 10:20 Mostly Cloudy 19 -7 12 -11 73 73 ESE 13 20 30.03 1017 30 48 N/A
10:50 am 10:50 Mostly Cloudy 19 -7 12 -11 73 73 ESE 13 20 30.03 1017 30 48 N/A
11:20 am 11:20 Mostly Cloudy 19 -7 12 -11 73 73 ESE 12 19 30.00 1016 30 48 N/A
11:50 am 11:50 Mostly Cloudy 19 -7 12 -11 73 73 ESE 12 19 30.00 1016 30 48 N/A
12:20 pm 12:20 Mostly Cloudy 19 -7 14 -10 79 79 ESE 13 20 29.97 1015 30 48 N/A
12:50 pm 12:50 Mostly Cloudy 19 -7 14 -10 79 79 ESE 12 19 29.97 1015 30 48 N/A
1:20 pm 13:20 Mostly Cloudy 21 -6 14 -10 74 74 ESE 12 19 29.94 1014 30 48 N/A
1:50 pm 13:50 Mostly Cloudy 21 -6 16 -9 80 80 ESE 10 17 29.91 1013 30 48 N/A
2:20 pm 14:20 Mostly Cloudy 21 -6 16 -9 80 80 ESE 10 17 29.91 1013 30 48 N/A
2:50 pm 14:50 Mostly Cloudy 21 -6 16 -9 80 80 ESE 12 19 29.88 1012 30 48 N/A
3:20 pm 15:20 Mostly Cloudy 23 -5 16 -9 74 74 ESE 13 20 29.88 1012 30 48 N/A
3:50 pm 15:50 Mostly Cloudy 21 -6 16 -9 80 80 ESE 9 15 29.88 1012 30 48 N/A
4:20 pm 16:20 Mostly Clear 21 -6 14 -10 74 74 ESE 12 19 29.88 1012 7 11 N/A
4:50 pm 16:50 Mostly Clear 21 -6 14 -10 74 74 ESE 12 19 29.85 1011 7 11 N/A
5:20 pm 17:20 Mostly Clear 21 -6 14 -10 74 74 ESE 14 22 29.85 1011 7 11 N/A
5:50 pm 17:50 Mostly Clear 19 -7 12 -11 73 73 ESE 13 20 29.83 1010 7 11 N/A
6:20 pm 18:20 Mostly Clear 19 -7 12 -11 73 73 ESE 12 19 29.83 1010 7 11 N/A
6:50 pm 18:50 Partly Cloudy 19 -7 12 -11 73 73 ESE 10 17 29.80 1009 30 48 N/A
7:20 pm 19:20 Mostly Clear 19 -7 12 -11 73 73 ESE 13 20 29.80 1009 7 11 N/A
7:50 pm 19:50 Mostly Clear 18 -8 12 -11 79 79 ESE 12 19 29.80 1009 7 11 N/A

Powered by AerisWeather